Time,TemperatureF,DewpointF,PressureIn,WindDirection,WindDirectionDegrees,WindSpeedMPH,WindSpeedGustMPH,Humidity,HourlyPrecipIn,Conditions,Clouds,dailyrainin,SoftwareType,DateUTC
2013-04-01 00:00:00,36.0,21.0,-100.00,West,265,7.0,9.0,52,0.00,,,0.00,,2013-04-01 06:00:00,
2013-04-01 00:42:00,36.0,21.0,-100.00,West,265,7.0,9.0,52,0.00,,,0.00,,2013-04-01 06:42:00,
2013-04-01 00:52:00,36.0,21.0,-100.00,West,265,7.0,9.0,52,0.00,,,0.00,,2013-04-01 06:52:00,
2013-04-01 01:00:00,34.0,20.0,-100.00,West,273,8.0,10.0,56,0.00,,,0.00,,2013-04-01 07:00:00,
2013-04-01 01:42:00,34.0,20.0,-100.00,West,273,8.0,10.0,56,0.00,,,0.00,,2013-04-01 07:42:00,
2013-04-01 01:52:00,34.0,20.0,-100.00,West,273,8.0,10.0,56,0.00,,,0.00,,2013-04-01 07:52:00,
2013-04-01 02:00:00,34.0,20.0,-100.00,West,272,8.0,11.0,56,0.00,,,0.00,,2013-04-01 08:00:00,
2013-04-01 02:43:00,34.0,20.0,-100.00,West,272,8.0,11.0,56,0.00,,,0.00,,2013-04-01 08:43:00,
2013-04-01 02:53:00,34.0,20.0,-100.00,West,272,8.0,11.0,56,0.00,,,0.00,,2013-04-01 08:53:00,
2013-04-01 03:00:00,32.0,20.0,-100.00,WNW,289,5.0,5.0,61,0.00,,,0.00,,2013-04-01 09:00:00,
2013-04-01 03:42:00,32.0,20.0,-100.00,WNW,289,5.0,5.0,61,0.00,,,0.00,,2013-04-01 09:42:00,
2013-04-01 03:53:00,32.0,20.0,-100.00,WNW,289,5.0,5.0,61,0.00,,,0.00,,2013-04-01 09:53:00,
2013-04-01 04:00:00,31.0,19.0,-100.00,WSW,258,10.0,14.0,61,0.00,,,0.00,,2013-04-01 10:00:00,
2013-04-01 04:42:00,31.0,19.0,-100.00,WSW,258,10.0,14.0,61,0.00,,,0.00,,2013-04-01 10:42:00,
2013-04-01 04:53:00,31.0,19.0,-100.00,WSW,258,10.0,14.0,61,0.00,,,0.00,,2013-04-01 10:53:00,
2013-04-01 05:00:00,31.0,19.0,-100.00,WSW,245,8.0,11.0,60,0.00,,,0.00,,2013-04-01 11:00:00,
2013-04-01 05:42:00,31.0,19.0,-100.00,WSW,245,8.0,11.0,60,0.00,,,0.00,,2013-04-01 11:42:00,
2013-04-01 05:53:00,31.0,19.0,-100.00,WSW,245,8.0,11.0,60,0.00,,,0.00,,2013-04-01 11:53:00,
2013-04-01 06:00:00,31.0,18.0,-100.00,WSW,250,9.0,12.0,60,0.00,,,-99.99,,2013-04-01 12:00:00,
2013-04-01 06:42:00,31.0,18.0,-100.00,WSW,250,9.0,12.0,60,0.00,,,-99.99,,2013-04-01 12:42:00,
2013-04-01 06:53:00,31.0,18.0,-100.00,WSW,250,9.0,12.0,60,0.00,,,-99.99,,2013-04-01 12:53:00,
2013-04-01 07:00:00,30.0,18.0,-100.00,WSW,255,10.0,14.0,60,0.00,,,0.00,,2013-04-01 13:00:00,
2013-04-01 07:42:00,30.0,18.0,-100.00,WSW,255,10.0,14.0,60,0.00,,,0.00,,2013-04-01 13:42:00,
2013-04-01 07:52:00,30.0,18.0,-100.00,WSW,255,10.0,14.0,60,0.00,,,0.00,,2013-04-01 13:52:00,
2013-04-01 08:00:00,33.0,19.0,-100.00,WSW,252,9.0,12.0,56,0.00,,,0.00,,2013-04-01 14:00:00,
2013-04-01 08:42:00,33.0,19.0,-100.00,WSW,252,9.0,12.0,56,0.00,,,0.00,,2013-04-01 14:42:00,
2013-04-01 08:53:00,33.0,19.0,-100.00,WSW,252,9.0,12.0,56,0.00,,,0.00,,2013-04-01 14:53:00,
2013-04-01 09:00:00,33.0,22.0,-100.00,ENE,57,3.0,4.0,64,0.00,,,0.00,,2013-04-01 15:00:00,
2013-04-01 09:43:00,33.0,22.0,-100.00,ENE,57,3.0,4.0,64,0.00,,,0.00,,2013-04-01 15:43:00,
2013-04-01 09:53:00,33.0,22.0,-100.00,ENE,57,3.0,4.0,64,0.00,,,0.00,,2013-04-01 15:53:00,
2013-04-01 11:00:00,38.0,23.0,-100.00,East,84,7.0,10.0,55,0.00,,,0.00,,2013-04-01 17:00:00,
2013-04-01 11:41:00,38.0,23.0,-100.00,East,84,7.0,10.0,55,0.00,,,0.00,,2013-04-01 17:41:00,
2013-04-01 11:53:00,38.0,23.0,-100.00,East,84,7.0,10.0,55,0.00,,,0.00,,2013-04-01 17:53:00,
2013-04-01 12:00:00,41.0,23.0,-100.00,East,98,6.0,11.0,50,0.00,,,0.00,,2013-04-01 18:00:00,
2013-04-01 12:42:00,41.0,23.0,-100.00,East,98,6.0,11.0,50,0.00,,,0.00,,2013-04-01 18:42:00,
2013-04-01 12:53:00,41.0,23.0,-100.00,East,98,6.0,11.0,50,0.00,,,0.00,,2013-04-01 18:53:00,
2013-04-01 13:00:00,43.0,24.0,-100.00,East,89,3.0,8.0,47,0.00,,,0.00,,2013-04-01 19:00:00,
2013-04-01 13:42:00,43.0,24.0,-100.00,East,89,3.0,8.0,47,0.00,,,0.00,,2013-04-01 19:42:00,
2013-04-01 13:53:00,43.0,24.0,-100.00,East,89,3.0,8.0,47,0.00,,,0.00,,2013-04-01 19:53:00,
2013-04-01 14:00:00,42.0,23.0,-100.00,ESE,109,5.0,6.0,46,0.00,,,0.00,,2013-04-01 20:00:00,
2013-04-01 14:42:00,42.0,23.0,-100.00,ESE,109,5.0,6.0,46,0.00,,,0.00,,2013-04-01 20:42:00,
2013-04-01 14:52:00,42.0,23.0,-100.00,ESE,109,5.0,6.0,46,0.00,,,0.00,,2013-04-01 20:52:00,
2013-04-01 15:00:00,45.0,23.0,-100.00,ENE,78,5.0,7.0,42,0.00,,,0.00,,2013-04-01 21:00:00,
2013-04-01 15:43:00,45.0,23.0,-100.00,ENE,78,5.0,7.0,42,0.00,,,0.00,,2013-04-01 21:43:00,
2013-04-01 15:53:00,45.0,23.0,-100.00,ENE,78,5.0,7.0,42,0.00,,,0.00,,2013-04-01 21:53:00,
2013-04-01 16:00:00,45.0,23.0,-100.00,ESE,117,3.0,7.0,42,0.00,,,0.00,,2013-04-01 22:00:00,
2013-04-01 16:42:00,45.0,23.0,-100.00,ESE,117,3.0,7.0,42,0.00,,,0.00,,2013-04-01 22:42:00,
2013-04-01 16:52:00,45.0,23.0,-100.00,ESE,117,3.0,7.0,42,0.00,,,0.00,,2013-04-01 22:52:00,
2013-04-01 17:00:00,45.0,23.0,-100.00,East,82,7.0,10.0,41,0.00,,,0.00,,2013-04-01 23:00:00,
2013-04-01 17:42:00,45.0,23.0,-100.00,East,82,7.0,10.0,41,0.00,,,0.00,,2013-04-01 23:42:00,
2013-04-01 17:53:00,45.0,23.0,-100.00,East,82,7.0,10.0,41,0.00,,,0.00,,2013-04-01 23:53:00,
2013-04-01 18:00:00,44.0,22.0,-100.00,North,354,2.0,3.0,42,0.00,,,0.00,,2013-04-02 00:00:00,
2013-04-01 18:42:00,44.0,22.0,-100.00,North,354,2.0,3.0,42,0.00,,,0.00,,2013-04-02 00:42:00,
2013-04-01 18:53:00,44.0,22.0,-100.00,North,354,2.0,3.0,42,0.00,,,0.00,,2013-04-02 00:53:00,
2013-04-01 19:00:00,43.0,22.0,-100.00,East,84,2.0,2.0,42,0.00,,,0.00,,2013-04-02 01:00:00,
2013-04-01 19:42:00,43.0,22.0,-100.00,East,84,2.0,2.0,42,0.00,,,0.00,,2013-04-02 01:42:00,
2013-04-01 19:53:00,43.0,22.0,-100.00,East,84,2.0,2.0,42,0.00,,,0.00,,2013-04-02 01:53:00,
2013-04-01 20:00:00,42.0,23.0,-100.00,NNE,24,1.0,1.0,46,0.00,,,0.00,,2013-04-02 02:00:00,
2013-04-01 20:42:00,42.0,23.0,-100.00,NNE,24,1.0,1.0,46,0.00,,,0.00,,2013-04-02 02:42:00,
2013-04-01 20:53:00,42.0,23.0,-100.00,NNE,24,1.0,1.0,46,0.00,,,0.00,,2013-04-02 02:53:00,
2013-04-01 21:00:00,41.0,24.0,-100.00,NNE,19,0.0,1.0,50,0.00,,,0.00,,2013-04-02 03:00:00,
2013-04-01 21:43:00,41.0,24.0,-100.00,NNE,19,0.0,1.0,50,0.00,,,0.00,,2013-04-02 03:43:00,
2013-04-01 21:53:00,41.0,24.0,-100.00,NNE,19,0.0,1.0,50,0.00,,,0.00,,2013-04-02 03:53:00,
2013-04-01 22:00:00,40.0,25.0,-100.00,SW,234,1.0,2.0,55,0.00,,,0.00,,2013-04-02 04:00:00,
2013-04-01 22:42:00,40.0,25.0,-100.00,SW,234,1.0,2.0,55,0.00,,,0.00,,2013-04-02 04:42:00,
2013-04-01 22:53:00,40.0,25.0,-100.00,SW,234,1.0,2.0,55,0.00,,,0.00,,2013-04-02 04:53:00,
2013-04-01 23:00:00,38.0,23.0,-100.00,WNW,295,3.0,3.0,55,0.00,,,0.00,,2013-04-02 05:00:00,
2013-04-01 23:42:00,38.0,23.0,-100.00,WNW,295,3.0,3.0,55,0.00,,,0.00,,2013-04-02 05:42:00,
2013-04-01 23:52:00,38.0,23.0,-100.00,WNW,295,3.0,3.0,55,0.00,,,0.00,,2013-04-02 05:52:00,